Year,Month,Day,Hour,Minute,Value (Times are PST for temperature in C)
2018,09,06,00,00,16.60
2018,09,06,00,01,16.60
2018,09,06,00,02,16.60
2018,09,06,00,03,16.60
2018,09,06,00,04,16.60
2018,09,06,00,05,16.60
2018,09,06,00,06,16.60
2018,09,06,00,07,16.60
2018,09,06,00,08,16.60
2018,09,06,00,09,16.60
2018,09,06,00,10,16.60
2018,09,06,00,11,16.60
2018,09,06,00,12,16.60
2018,09,06,00,13,16.60
2018,09,06,00,14,16.60
2018,09,06,00,15,16.60
2018,09,06,00,16,16.60
2018,09,06,00,17,16.60
2018,09,06,00,18,16.70
2018,09,06,00,19,16.70
2018,09,06,00,20,16.80
2018,09,06,00,21,16.80
2018,09,06,00,22,16.80
2018,09,06,00,23,16.80
2018,09,06,00,24,16.90
2018,09,06,00,25,16.90
2018,09,06,00,26,17.00
2018,09,06,00,27,17.00
2018,09,06,00,28,17.10
2018,09,06,00,29,17.10
2018,09,06,00,30,17.10
2018,09,06,00,31,17.20
2018,09,06,00,32,17.20
2018,09,06,00,33,17.30
2018,09,06,00,34,17.30
2018,09,06,00,35,17.30
2018,09,06,00,36,17.30
2018,09,06,00,37,17.40
2018,09,06,00,38,17.40
2018,09,06,00,39,17.40
2018,09,06,00,40,17.40
2018,09,06,00,41,17.40
2018,09,06,00,42,17.40
2018,09,06,00,43,17.40
2018,09,06,00,44,17.40
2018,09,06,00,45,17.40
2018,09,06,00,46,17.40
2018,09,06,00,47,17.30
2018,09,06,00,48,17.30
2018,09,06,00,49,17.30
2018,09,06,00,50,17.30
2018,09,06,00,51,17.20
2018,09,06,00,52,17.20
2018,09,06,00,53,17.20
2018,09,06,00,54,17.20
2018,09,06,00,55,17.20
2018,09,06,00,56,17.20
2018,09,06,00,57,17.20
2018,09,06,00,58,17.20
2018,09,06,00,59,17.20
2018,09,06,01,00,17.20
2018,09,06,01,01,17.20
2018,09,06,01,02,17.20
2018,09,06,01,03,17.20
2018,09,06,01,04,17.30
2018,09,06,01,05,17.30
2018,09,06,01,06,17.30
2018,09,06,01,07,17.30
2018,09,06,01,08,17.40
2018,09,06,01,09,17.40
2018,09,06,01,10,17.40
2018,09,06,01,11,17.40
2018,09,06,01,12,17.40
2018,09,06,01,13,17.40
2018,09,06,01,14,17.50
2018,09,06,01,15,17.50
2018,09,06,01,16,17.50
2018,09,06,01,17,17.50
2018,09,06,01,18,17.50
2018,09,06,01,19,17.50
2018,09,06,01,20,17.50
2018,09,06,01,21,17.50
2018,09,06,01,22,17.50
2018,09,06,01,23,17.50
2018,09,06,01,24,17.50
2018,09,06,01,25,17.50
2018,09,06,01,26,17.50
2018,09,06,01,27,17.40
2018,09,06,01,28,17.40
2018,09,06,01,29,17.40
2018,09,06,01,30,17.40
2018,09,06,01,31,17.40
2018,09,06,01,32,17.40
2018,09,06,01,33,17.30
2018,09,06,01,34,17.30
2018,09,06,01,35,17.30
2018,09,06,01,36,17.30
2018,09,06,01,37,17.30
2018,09,06,01,38,17.30
2018,09,06,01,39,17.30
2018,09,06,01,40,17.30
2018,09,06,01,41,17.20
2018,09,06,01,42,17.20
2018,09,06,01,43,17.20
2018,09,06,01,44,17.20
2018,09,06,01,45,17.20
2018,09,06,01,46,17.20
2018,09,06,01,47,17.20
2018,09,06,01,48,17.20
2018,09,06,01,49,17.20
2018,09,06,01,50,17.20
2018,09,06,01,51,17.20
2018,09,06,01,52,17.20
2018,09,06,01,53,17.20
2018,09,06,01,54,17.20
2018,09,06,01,55,17.20
2018,09,06,01,56,17.20
2018,09,06,01,57,17.20
2018,09,06,01,58,17.20
2018,09,06,01,59,17.20
2018,09,06,02,00,17.20
2018,09,06,02,01,17.20
2018,09,06,02,02,17.20
2018,09,06,02,03,17.20
2018,09,06,02,04,17.20
2018,09,06,02,05,17.20
2018,09,06,02,06,17.20
2018,09,06,02,07,17.20
2018,09,06,02,08,17.20
2018,09,06,02,09,17.20
2018,09,06,02,10,17.20
2018,09,06,02,11,17.20
2018,09,06,02,12,17.20
2018,09,06,02,13,17.20
2018,09,06,02,14,17.20
2018,09,06,02,15,17.20
2018,09,06,02,16,17.10
2018,09,06,02,17,17.10
2018,09,06,02,18,17.10
2018,09,06,02,19,17.10
2018,09,06,02,20,17.10
2018,09,06,02,21,17.10
2018,09,06,02,22,17.10
2018,09,06,02,23,17.10
2018,09,06,02,24,17.20
2018,09,06,02,25,17.10
2018,09,06,02,26,17.10
2018,09,06,02,27,17.10
2018,09,06,02,28,17.10
2018,09,06,02,29,17.10
2018,09,06,02,30,17.10
2018,09,06,02,31,17.10
2018,09,06,02,32,17.00
2018,09,06,02,33,17.00
2018,09,06,02,34,16.90
2018,09,06,02,35,16.90
2018,09,06,02,36,16.80
2018,09,06,02,37,16.80
2018,09,06,02,38,16.70
2018,09,06,02,39,16.60
2018,09,06,02,40,16.60
2018,09,06,02,41,16.50
2018,09,06,02,42,16.50
2018,09,06,02,43,16.40
2018,09,06,02,44,16.40
2018,09,06,02,45,16.30
2018,09,06,02,46,16.30
2018,09,06,02,47,16.20
2018,09,06,02,48,16.20
2018,09,06,02,49,16.20
2018,09,06,02,50,16.10
2018,09,06,02,51,16.10
2018,09,06,02,52,16.00
2018,09,06,02,53,16.00
2018,09,06,02,54,15.90
2018,09,06,02,55,15.90
2018,09,06,02,56,15.90
2018,09,06,02,57,15.80
2018,09,06,02,58,15.80
2018,09,06,02,59,15.70
2018,09,06,03,00,15.70
2018,09,06,03,01,15.70
2018,09,06,03,02,15.70
2018,09,06,03,03,15.60
2018,09,06,03,04,15.60
2018,09,06,03,05,15.60
2018,09,06,03,06,15.50
2018,09,06,03,07,15.50
2018,09,06,03,08,15.50
2018,09,06,03,09,15.40
2018,09,06,03,10,15.40
2018,09,06,03,11,15.40
2018,09,06,03,12,15.40
2018,09,06,03,13,15.40
2018,09,06,03,14,15.30
2018,09,06,03,15,15.30
2018,09,06,03,16,15.30
2018,09,06,03,17,15.30
2018,09,06,03,18,15.30
2018,09,06,03,19,15.30
2018,09,06,03,20,15.30
2018,09,06,03,21,15.30
2018,09,06,03,22,15.20
2018,09,06,03,23,15.20
2018,09,06,03,24,15.20
2018,09,06,03,25,15.20
2018,09,06,03,26,15.10
2018,09,06,03,27,15.10
2018,09,06,03,28,15.10
2018,09,06,03,29,15.10
2018,09,06,03,30,15.10
2018,09,06,03,31,15.10
2018,09,06,03,32,15.10
2018,09,06,03,33,15.10
2018,09,06,03,34,15.00
2018,09,06,03,35,15.00
2018,09,06,03,36,15.00
2018,09,06,03,37,15.00
2018,09,06,03,38,15.00
2018,09,06,03,39,15.00
2018,09,06,03,40,15.00
2018,09,06,03,41,15.00
2018,09,06,03,42,15.00
2018,09,06,03,43,15.00
2018,09,06,03,44,14.90
2018,09,06,03,45,14.90
2018,09,06,03,46,14.90
2018,09,06,03,47,14.90
2018,09,06,03,48,14.90
2018,09,06,03,49,14.90
2018,09,06,03,50,14.90
2018,09,06,03,51,14.90
2018,09,06,03,52,14.80
2018,09,06,03,53,14.80
2018,09,06,03,54,14.80
2018,09,06,03,55,14.80
2018,09,06,03,56,14.80
2018,09,06,03,57,14.80
2018,09,06,03,58,14.80
2018,09,06,03,59,14.80
2018,09,06,04,00,14.80
2018,09,06,04,01,14.80
2018,09,06,04,02,14.80
2018,09,06,04,03,14.80
2018,09,06,04,04,14.80
2018,09,06,04,05,14.80
2018,09,06,04,06,14.80
2018,09,06,04,07,14.80
2018,09,06,04,08,14.80
2018,09,06,04,09,14.80
2018,09,06,04,10,14.80
2018,09,06,04,11,14.80
2018,09,06,04,12,14.80
2018,09,06,04,13,14.80
2018,09,06,04,14,14.80
2018,09,06,04,15,14.80
2018,09,06,04,16,14.70
2018,09,06,04,17,14.70
2018,09,06,04,18,14.70
2018,09,06,04,19,14.70
2018,09,06,04,20,14.70
2018,09,06,04,21,14.70
2018,09,06,04,22,14.70
2018,09,06,04,23,14.70
2018,09,06,04,24,14.70
2018,09,06,04,25,14.70
2018,09,06,04,26,14.70
2018,09,06,04,27,14.60
2018,09,06,04,28,14.60
2018,09,06,04,29,14.60
2018,09,06,04,30,14.60
2018,09,06,04,31,14.60
2018,09,06,04,32,14.60
2018,09,06,04,33,14.60
2018,09,06,04,34,14.60
2018,09,06,04,35,14.60
2018,09,06,04,36,14.60
2018,09,06,04,37,14.60
2018,09,06,04,38,14.60
2018,09,06,04,39,14.60
2018,09,06,04,40,14.60
2018,09,06,04,41,14.60
2018,09,06,04,42,14.60
2018,09,06,04,43,14.50
2018,09,06,04,44,14.60
2018,09,06,04,45,14.60
2018,09,06,04,46,14.60
2018,09,06,04,47,14.60
2018,09,06,04,48,14.60
2018,09,06,04,49,14.60
2018,09,06,04,50,14.60
2018,09,06,04,51,14.60
2018,09,06,04,52,14.60
2018,09,06,04,53,14.60
2018,09,06,04,54,14.60
2018,09,06,04,55,14.70
2018,09,06,04,56,14.70
2018,09,06,04,57,14.70
2018,09,06,04,58,14.70
2018,09,06,04,59,14.70
2018,09,06,05,00,14.80
2018,09,06,05,01,14.80
2018,09,06,05,02,14.80
2018,09,06,05,03,14.80
2018,09,06,05,04,14.90
2018,09,06,05,05,14.90
2018,09,06,05,06,14.90
2018,09,06,05,07,15.00
2018,09,06,05,08,15.00
2018,09,06,05,09,15.00
2018,09,06,05,10,15.00
2018,09,06,05,11,15.00
2018,09,06,05,12,15.10
2018,09,06,05,13,15.10
2018,09,06,05,14,15.10
2018,09,06,05,15,15.10
2018,09,06,05,16,15.10
2018,09,06,05,17,15.10
2018,09,06,05,18,15.10
2018,09,06,05,19,15.20
2018,09,06,05,20,15.20
2018,09,06,05,21,15.20
2018,09,06,05,22,15.20
2018,09,06,05,23,15.20
2018,09,06,05,24,15.20
2018,09,06,05,25,15.20
2018,09,06,05,26,15.20
2018,09,06,05,27,15.20
2018,09,06,05,28,15.20
2018,09,06,05,29,15.20
2018,09,06,05,30,15.20
2018,09,06,05,31,15.10
2018,09,06,05,32,15.10
2018,09,06,05,33,15.10
2018,09,06,05,34,15.10
2018,09,06,05,35,15.10
2018,09,06,05,36,15.10
2018,09,06,05,37,15.10
2018,09,06,05,38,15.10
2018,09,06,05,39,15.10
2018,09,06,05,40,15.10
2018,09,06,05,41,15.10
2018,09,06,05,42,15.10
2018,09,06,05,43,15.10
2018,09,06,05,44,15.20
2018,09,06,05,45,15.20
2018,09,06,05,46,15.20
2018,09,06,05,47,15.20
2018,09,06,05,48,15.20
2018,09,06,05,49,15.20
2018,09,06,05,50,15.30
2018,09,06,05,51,15.30
2018,09,06,05,52,15.30
2018,09,06,05,53,15.30
2018,09,06,05,54,15.30
2018,09,06,05,55,15.30
2018,09,06,05,56,15.40
2018,09,06,05,57,15.40
2018,09,06,05,58,15.40
2018,09,06,05,59,15.40
2018,09,06,06,00,15.40
2018,09,06,06,01,15.40
2018,09,06,06,02,15.40
2018,09,06,06,03,15.40
2018,09,06,06,04,15.40
2018,09,06,06,05,15.40
2018,09,06,06,06,15.40
2018,09,06,06,07,15.40
2018,09,06,06,08,15.40
2018,09,06,06,09,15.40
2018,09,06,06,10,15.40
2018,09,06,06,11,15.40
2018,09,06,06,12,15.40
2018,09,06,06,13,15.40
2018,09,06,06,14,15.40
2018,09,06,06,15,15.40
2018,09,06,06,16,15.40
2018,09,06,06,17,15.40
2018,09,06,06,18,15.40
2018,09,06,06,19,15.40
2018,09,06,06,20,15.40
2018,09,06,06,21,15.40
2018,09,06,06,22,15.40
2018,09,06,06,23,15.40
2018,09,06,06,24,15.40
2018,09,06,06,25,15.40
2018,09,06,06,26,15.40
2018,09,06,06,27,15.40
2018,09,06,06,28,15.40
2018,09,06,06,29,15.40
2018,09,06,06,30,15.40
2018,09,06,06,31,15.40
2018,09,06,06,32,15.40
2018,09,06,06,33,15.30
2018,09,06,06,34,15.30
2018,09,06,06,35,15.30
2018,09,06,06,36,15.30
2018,09,06,06,37,15.30
2018,09,06,06,38,15.30
2018,09,06,06,39,15.30
2018,09,06,06,40,15.30
2018,09,06,06,41,15.30
2018,09,06,06,42,15.30
2018,09,06,06,43,15.30
2018,09,06,06,44,15.30
2018,09,06,06,45,15.30
2018,09,06,06,46,15.30
2018,09,06,06,47,15.30
2018,09,06,06,48,15.30
2018,09,06,06,49,15.30
2018,09,06,06,50,15.30
2018,09,06,06,51,15.30
2018,09,06,06,52,15.30
2018,09,06,06,53,15.30
2018,09,06,06,54,15.20
2018,09,06,06,55,15.20
2018,09,06,06,56,15.20
2018,09,06,06,57,15.20
2018,09,06,06,58,15.20
2018,09,06,06,59,15.20
2018,09,06,07,00,15.30
2018,09,06,07,01,15.30
2018,09,06,07,02,15.30
2018,09,06,07,03,15.30
2018,09,06,07,04,15.30
2018,09,06,07,05,15.30
2018,09,06,07,06,15.30
2018,09,06,07,07,15.30
2018,09,06,07,08,15.30
2018,09,06,07,09,15.30
2018,09,06,07,10,15.30
2018,09,06,07,11,15.30
2018,09,06,07,12,15.30
2018,09,06,07,13,15.40
2018,09,06,07,14,15.40
2018,09,06,07,15,15.40
2018,09,06,07,16,15.40
2018,09,06,07,17,15.40
2018,09,06,07,18,15.50
2018,09,06,07,19,15.40
2018,09,06,07,20,15.50
2018,09,06,07,21,15.50
2018,09,06,07,22,15.50
2018,09,06,07,23,15.50
2018,09,06,07,24,15.50
2018,09,06,07,25,15.50
2018,09,06,07,26,15.60
2018,09,06,07,27,15.60
2018,09,06,07,28,15.60
2018,09,06,07,29,15.60
2018,09,06,07,30,15.60
2018,09,06,07,31,15.60
2018,09,06,07,32,15.60
2018,09,06,07,33,15.60
2018,09,06,07,34,15.60
2018,09,06,07,35,15.60
2018,09,06,07,36,15.60
2018,09,06,07,37,15.70
2018,09,06,07,38,15.70
2018,09,06,07,39,15.70
2018,09,06,07,40,15.70
2018,09,06,07,41,15.70
2018,09,06,07,42,15.60
2018,09,06,07,43,15.60
2018,09,06,07,44,15.60
2018,09,06,07,45,15.60
2018,09,06,07,46,15.60
2018,09,06,07,47,15.60
2018,09,06,07,48,15.60
2018,09,06,07,49,15.60
2018,09,06,07,50,15.60
2018,09,06,07,51,15.60
2018,09,06,07,52,15.60
2018,09,06,07,53,15.60
2018,09,06,07,54,15.50
2018,09,06,07,55,15.50
2018,09,06,07,56,15.50
2018,09,06,07,57,15.50
2018,09,06,07,58,15.40
2018,09,06,07,59,15.40
2018,09,06,08,00,15.40
2018,09,06,08,01,15.40
2018,09,06,08,02,15.30
2018,09,06,08,03,15.30
2018,09,06,08,04,15.30
2018,09,06,08,05,15.30
2018,09,06,08,06,15.30
2018,09,06,08,07,15.30
2018,09,06,08,08,15.30
2018,09,06,08,09,15.30
2018,09,06,08,10,15.20
2018,09,06,08,11,15.20
2018,09,06,08,12,15.20
2018,09,06,08,13,15.20
2018,09,06,08,14,15.20
2018,09,06,08,15,15.20
2018,09,06,08,16,15.10
2018,09,06,08,17,15.10
2018,09,06,08,18,15.10
2018,09,06,08,19,15.10
2018,09,06,08,20,15.10
2018,09,06,08,21,15.10
2018,09,06,08,22,15.00
2018,09,06,08,23,15.00
2018,09,06,08,24,15.00
2018,09,06,08,25,15.00
2018,09,06,08,26,15.00
2018,09,06,08,27,15.00
2018,09,06,08,28,15.00
2018,09,06,08,29,15.00
2018,09,06,08,30,15.00
2018,09,06,08,31,15.00
2018,09,06,08,32,15.00
2018,09,06,08,33,15.00
2018,09,06,08,34,15.00
2018,09,06,08,35,15.00
2018,09,06,08,36,15.00
2018,09,06,08,37,15.00
2018,09,06,08,38,15.00
2018,09,06,08,39,15.00
2018,09,06,08,40,15.00
2018,09,06,08,41,15.00
2018,09,06,08,42,15.00
2018,09,06,08,43,15.00
2018,09,06,08,44,15.00
2018,09,06,08,45,15.00
2018,09,06,08,46,15.00
2018,09,06,08,47,15.00
2018,09,06,08,48,15.00
2018,09,06,08,49,15.00
2018,09,06,08,50,15.00
2018,09,06,08,51,15.00
2018,09,06,08,52,15.00
2018,09,06,08,53,15.00
2018,09,06,08,54,15.00
2018,09,06,08,55,15.00
2018,09,06,08,56,15.00
2018,09,06,08,57,15.00
2018,09,06,08,58,15.10
2018,09,06,08,59,15.00
2018,09,06,09,00,15.00
2018,09,06,09,01,15.00
2018,09,06,09,02,15.10
2018,09,06,09,03,15.10
2018,09,06,09,04,15.10
2018,09,06,09,05,15.10
2018,09,06,09,06,15.10
2018,09,06,09,07,15.10
2018,09,06,09,08,15.10
2018,09,06,09,09,15.10
2018,09,06,09,10,15.10
2018,09,06,09,11,15.10
2018,09,06,09,12,15.10
2018,09,06,09,13,15.10
2018,09,06,09,14,15.10
2018,09,06,09,15,15.10
2018,09,06,09,16,15.10
2018,09,06,09,17,15.10
2018,09,06,09,18,15.10
2018,09,06,09,19,15.10
2018,09,06,09,20,15.10
2018,09,06,09,21,15.10
2018,09,06,09,22,15.10
2018,09,06,09,23,15.10
2018,09,06,09,24,15.10
2018,09,06,09,25,15.10
2018,09,06,09,26,15.10
2018,09,06,09,27,15.10
2018,09,06,09,28,15.10
2018,09,06,09,29,15.10
2018,09,06,09,30,15.20
2018,09,06,09,31,15.10
2018,09,06,09,32,15.10
2018,09,06,09,33,15.10
2018,09,06,09,34,15.10
2018,09,06,09,35,15.20
2018,09,06,09,36,15.20
2018,09,06,09,37,15.20
2018,09,06,09,38,15.20
2018,09,06,09,39,15.20
2018,09,06,09,40,15.20
2018,09,06,09,41,15.20
2018,09,06,09,42,15.20
2018,09,06,09,43,15.20
2018,09,06,09,44,15.20
2018,09,06,09,45,15.20
2018,09,06,09,46,15.20
2018,09,06,09,47,15.20
2018,09,06,09,48,15.20
2018,09,06,09,49,15.20
2018,09,06,09,50,15.20
2018,09,06,09,51,15.20
2018,09,06,09,52,15.30
2018,09,06,09,53,15.20
2018,09,06,09,54,15.30
2018,09,06,09,55,15.30
2018,09,06,09,56,15.30
2018,09,06,09,57,15.30
2018,09,06,09,58,15.30
2018,09,06,09,59,15.30
2018,09,06,10,00,15.30
2018,09,06,10,01,15.30
2018,09,06,10,02,15.30
2018,09,06,10,03,15.30
2018,09,06,10,04,15.30
2018,09,06,10,05,15.30
2018,09,06,10,06,15.30
2018,09,06,10,07,15.30
2018,09,06,10,08,15.40
2018,09,06,10,09,15.40
2018,09,06,10,10,15.40
2018,09,06,10,11,15.40
2018,09,06,10,12,15.40
2018,09,06,10,13,15.40
2018,09,06,10,14,15.40
2018,09,06,10,15,15.40
2018,09,06,10,16,15.40
2018,09,06,10,17,15.40
2018,09,06,10,18,15.40
2018,09,06,10,19,15.40
2018,09,06,10,20,15.50
2018,09,06,10,21,15.50
2018,09,06,10,22,15.50
2018,09,06,10,23,15.50
2018,09,06,10,24,15.50
2018,09,06,10,25,15.50
2018,09,06,10,26,15.50
2018,09,06,10,27,15.60
2018,09,06,10,28,15.60
2018,09,06,10,29,15.60
2018,09,06,10,30,15.60
2018,09,06,10,31,15.60
2018,09,06,10,32,15.60
2018,09,06,10,33,15.60
2018,09,06,10,34,15.60
2018,09,06,10,35,15.60
2018,09,06,10,36,15.60
2018,09,06,10,37,15.70
2018,09,06,10,38,15.70
2018,09,06,10,39,15.70
2018,09,06,10,40,15.70
2018,09,06,10,41,15.70
2018,09,06,10,42,15.70
2018,09,06,10,43,15.70
2018,09,06,10,44,15.70
2018,09,06,10,45,15.70
2018,09,06,10,46,15.70
2018,09,06,10,47,15.70
2018,09,06,10,48,15.70
2018,09,06,10,49,15.70
2018,09,06,10,50,15.70
2018,09,06,10,51,15.70
2018,09,06,10,52,15.70
2018,09,06,10,53,15.70
2018,09,06,10,54,15.70
2018,09,06,10,55,15.70
2018,09,06,10,56,15.70
2018,09,06,10,57,15.70
2018,09,06,10,58,15.70
2018,09,06,10,59,15.70
2018,09,06,11,00,15.70
2018,09,06,11,01,15.70
2018,09,06,11,02,15.70
2018,09,06,11,03,15.70
2018,09,06,11,04,15.70
2018,09,06,11,05,15.70
2018,09,06,11,06,15.70
2018,09,06,11,07,15.70
2018,09,06,11,08,15.70
2018,09,06,11,09,15.70
2018,09,06,11,10,15.70
2018,09,06,11,11,15.70
2018,09,06,11,12,15.70
2018,09,06,11,13,15.70
2018,09,06,11,14,15.70
2018,09,06,11,15,15.70
2018,09,06,11,16,15.70
2018,09,06,11,17,15.70
2018,09,06,11,18,15.70
2018,09,06,11,19,15.70
2018,09,06,11,20,15.70
2018,09,06,11,21,15.70
2018,09,06,11,22,15.70
2018,09,06,11,23,15.70
2018,09,06,11,24,15.70
2018,09,06,11,25,15.70
2018,09,06,11,26,15.70
2018,09,06,11,27,15.70
2018,09,06,11,28,15.70
2018,09,06,11,29,15.70
2018,09,06,11,30,15.70
2018,09,06,11,31,15.60
2018,09,06,11,32,15.60
2018,09,06,11,33,15.60
2018,09,06,11,34,15.60
2018,09,06,11,35,15.60
2018,09,06,11,36,15.50
2018,09,06,11,37,15.50
2018,09,06,11,38,15.60
2018,09,06,11,39,15.50
2018,09,06,11,40,15.50
2018,09,06,11,41,15.50
2018,09,06,11,42,15.50
2018,09,06,11,43,15.50
2018,09,06,11,44,15.50
2018,09,06,11,45,15.50
2018,09,06,11,46,15.50
2018,09,06,11,47,15.50
2018,09,06,11,48,15.50
2018,09,06,11,49,15.50
2018,09,06,11,50,15.60
2018,09,06,11,51,15.60
2018,09,06,11,52,15.60
2018,09,06,11,53,15.60
2018,09,06,11,54,15.60
2018,09,06,11,55,15.60
2018,09,06,11,56,15.70
2018,09,06,11,57,15.70
2018,09,06,11,58,15.80
2018,09,06,11,59,15.80
2018,09,06,12,00,15.90
2018,09,06,12,01,15.90
2018,09,06,12,02,15.90
2018,09,06,12,03,15.80
2018,09,06,12,04,15.90
2018,09,06,12,05,15.90
2018,09,06,12,06,15.90
2018,09,06,12,07,16.00
2018,09,06,12,08,16.10
2018,09,06,12,09,16.20
2018,09,06,12,10,16.20
2018,09,06,12,11,16.30
2018,09,06,12,12,16.30
2018,09,06,12,13,16.40
2018,09,06,12,14,16.40
2018,09,06,12,15,16.50
2018,09,06,12,16,16.50
2018,09,06,12,17,16.60
2018,09,06,12,18,16.60
2018,09,06,12,19,16.70
2018,09,06,12,20,16.70
2018,09,06,12,21,16.80
2018,09,06,12,22,16.90
2018,09,06,12,23,16.90
2018,09,06,12,24,17.00
2018,09,06,12,25,17.00
2018,09,06,12,26,17.10
2018,09,06,12,27,17.10
2018,09,06,12,28,17.20
2018,09,06,12,29,17.30
2018,09,06,12,30,17.30
2018,09,06,12,31,17.40
2018,09,06,12,32,17.50
2018,09,06,12,33,17.50
2018,09,06,12,34,17.50
2018,09,06,12,35,17.50
2018,09,06,12,36,17.50
2018,09,06,12,37,17.50
2018,09,06,12,38,17.40
2018,09,06,12,39,17.40
2018,09,06,12,40,17.40
2018,09,06,12,41,17.40
2018,09,06,12,42,17.40
2018,09,06,12,43,17.40
2018,09,06,12,44,17.50
2018,09,06,12,45,17.70
2018,09,06,12,46,17.80
2018,09,06,12,47,17.90
2018,09,06,12,48,18.00
2018,09,06,12,49,18.10
2018,09,06,12,50,18.30
2018,09,06,12,51,18.40
2018,09,06,12,52,18.60
2018,09,06,12,53,18.80
2018,09,06,12,54,19.00
2018,09,06,12,55,19.10
2018,09,06,12,56,19.20
2018,09,06,12,57,19.30
2018,09,06,12,58,19.50
2018,09,06,12,59,19.60
2018,09,06,13,00,19.60
2018,09,06,13,01,19.70
2018,09,06,13,02,19.70
2018,09,06,13,03,19.80
2018,09,06,13,04,19.90
2018,09,06,13,05,19.90
2018,09,06,13,06,20.00
2018,09,06,13,07,20.00
2018,09,06,13,08,20.10
2018,09,06,13,09,20.20
2018,09,06,13,10,20.20
2018,09,06,13,11,20.30
2018,09,06,13,12,20.30
2018,09,06,13,13,20.30
2018,09,06,13,14,20.40
2018,09,06,13,15,20.40
2018,09,06,13,16,20.50
2018,09,06,13,17,20.50
2018,09,06,13,18,20.50
2018,09,06,13,19,20.60
2018,09,06,13,20,20.60
2018,09,06,13,21,20.70
2018,09,06,13,22,20.70
2018,09,06,13,23,20.80
2018,09,06,13,24,20.80
2018,09,06,13,25,20.90
2018,09,06,13,26,20.90
2018,09,06,13,27,21.00
2018,09,06,13,28,21.10
2018,09,06,13,29,21.10
2018,09,06,13,30,21.20
2018,09,06,13,31,21.20
2018,09,06,13,32,21.30
2018,09,06,13,33,21.40
2018,09,06,13,34,21.50
2018,09,06,13,35,21.60
2018,09,06,13,36,21.60
2018,09,06,13,37,21.70
2018,09,06,13,38,21.70
2018,09,06,13,39,21.80
2018,09,06,13,40,21.90
2018,09,06,13,41,22.00
2018,09,06,13,42,22.10
2018,09,06,13,43,22.10
2018,09,06,13,44,22.20
2018,09,06,13,45,22.20
2018,09,06,13,46,22.30
2018,09,06,13,47,22.40
2018,09,06,13,48,22.50
2018,09,06,13,49,22.60
2018,09,06,13,50,22.70
2018,09,06,13,51,22.90
2018,09,06,13,52,23.00
2018,09,06,13,53,23.10
2018,09,06,13,54,23.10
2018,09,06,13,55,23.20
2018,09,06,13,56,23.30
2018,09,06,13,57,23.40
2018,09,06,13,58,23.40
2018,09,06,13,59,23.40
2018,09,06,14,00,23.40
2018,09,06,14,01,23.40
2018,09,06,14,02,23.40
2018,09,06,14,03,23.50
2018,09,06,14,04,23.50
2018,09,06,14,05,23.60
2018,09,06,14,06,23.60
2018,09,06,14,07,23.60
2018,09,06,14,08,23.60
2018,09,06,14,09,23.60
2018,09,06,14,10,23.70
2018,09,06,14,11,23.70
2018,09,06,14,12,23.70
2018,09,06,14,13,23.70
2018,09,06,14,14,23.60
2018,09,06,14,15,23.40
2018,09,06,14,16,23.30
2018,09,06,14,17,23.20
2018,09,06,14,18,23.20
2018,09,06,14,19,23.20
2018,09,06,14,20,23.10
2018,09,06,14,21,23.10
2018,09,06,14,22,23.10
2018,09,06,14,23,23.20
2018,09,06,14,24,23.20
2018,09,06,14,25,23.20
2018,09,06,14,26,23.30
2018,09,06,14,27,23.30
2018,09,06,14,28,23.40
2018,09,06,14,29,23.40
2018,09,06,14,30,23.40
2018,09,06,14,31,23.40
2018,09,06,14,32,23.40
2018,09,06,14,33,23.40
2018,09,06,14,34,23.30
2018,09,06,14,35,23.30
2018,09,06,14,36,23.30
2018,09,06,14,37,23.40
2018,09,06,14,38,23.40
2018,09,06,14,39,23.50
2018,09,06,14,40,23.60
2018,09,06,14,41,23.70
2018,09,06,14,42,23.80
2018,09,06,14,43,23.80
2018,09,06,14,44,23.80
2018,09,06,14,45,23.80
2018,09,06,14,46,23.80
2018,09,06,14,47,23.80
2018,09,06,14,48,23.80
2018,09,06,14,49,23.80
2018,09,06,14,50,23.80
2018,09,06,14,51,23.80
2018,09,06,14,52,23.70
2018,09,06,14,53,23.70
2018,09,06,14,54,23.70
2018,09,06,14,55,23.70
2018,09,06,14,56,23.80
2018,09,06,14,57,23.90
2018,09,06,14,58,23.90
2018,09,06,14,59,24.00
2018,09,06,15,00,24.20
2018,09,06,15,01,24.30
2018,09,06,15,02,24.40
2018,09,06,15,03,24.50
2018,09,06,15,04,24.60
2018,09,06,15,05,24.70
2018,09,06,15,06,24.80
2018,09,06,15,07,24.80
2018,09,06,15,08,24.90
2018,09,06,15,09,24.90
2018,09,06,15,10,25.00
2018,09,06,15,11,25.00
2018,09,06,15,12,25.00
2018,09,06,15,13,25.00
2018,09,06,15,14,25.00
2018,09,06,15,15,25.00
2018,09,06,15,16,25.00
2018,09,06,15,17,25.00
2018,09,06,15,18,25.00
2018,09,06,15,19,25.00
2018,09,06,15,20,25.10
2018,09,06,15,21,25.10
2018,09,06,15,22,25.20
2018,09,06,15,23,25.30
2018,09,06,15,24,25.40
2018,09,06,15,25,25.50
2018,09,06,15,26,25.50
2018,09,06,15,27,25.60
2018,09,06,15,28,25.70
2018,09,06,15,29,25.80
2018,09,06,15,30,25.90
2018,09,06,15,31,26.00
2018,09,06,15,32,26.10
2018,09,06,15,33,26.20
2018,09,06,15,34,26.20
2018,09,06,15,35,26.30
2018,09,06,15,36,26.30
2018,09,06,15,37,26.30
2018,09,06,15,38,26.30
2018,09,06,15,39,26.30
2018,09,06,15,40,26.30
2018,09,06,15,41,26.30
2018,09,06,15,42,26.30
2018,09,06,15,43,26.30
2018,09,06,15,44,26.40
2018,09,06,15,45,26.40
2018,09,06,15,46,26.50
2018,09,06,15,47,26.50
2018,09,06,15,48,26.60
2018,09,06,15,49,26.70
2018,09,06,15,50,26.70
2018,09,06,15,51,26.80
2018,09,06,15,52,26.80
2018,09,06,15,53,26.80
2018,09,06,15,54,26.80
2018,09,06,15,55,26.80
2018,09,06,15,56,26.90
2018,09,06,15,57,26.80
2018,09,06,15,58,26.80
2018,09,06,15,59,26.80
2018,09,06,16,00,26.80
2018,09,06,16,01,26.80
2018,09,06,16,02,26.80
2018,09,06,16,03,26.80
2018,09,06,16,04,26.80
2018,09,06,16,05,26.70
2018,09,06,16,06,26.70
2018,09,06,16,07,26.70
2018,09,06,16,08,26.60
2018,09,06,16,09,26.60
2018,09,06,16,10,26.60
2018,09,06,16,11,26.60
2018,09,06,16,12,26.60
2018,09,06,16,13,26.60
2018,09,06,16,14,26.50
2018,09,06,16,15,26.50
2018,09,06,16,16,26.50
2018,09,06,16,17,26.50
2018,09,06,16,18,26.50
2018,09,06,16,19,26.50
2018,09,06,16,20,26.50
2018,09,06,16,21,26.50
2018,09,06,16,22,26.60
2018,09,06,16,23,26.60
2018,09,06,16,24,26.60
2018,09,06,16,25,26.60
2018,09,06,16,26,26.60
2018,09,06,16,27,26.60
2018,09,06,16,28,26.60
2018,09,06,16,29,26.60
2018,09,06,16,30,26.60
2018,09,06,16,31,26.60
2018,09,06,16,32,26.70
2018,09,06,16,33,26.70
2018,09,06,16,34,26.70
2018,09,06,16,35,26.60
2018,09,06,16,36,26.40
2018,09,06,16,37,26.20
2018,09,06,16,38,25.80
2018,09,06,16,39,25.50
2018,09,06,16,40,25.20
2018,09,06,16,41,24.90
2018,09,06,16,42,24.70
2018,09,06,16,43,24.50
2018,09,06,16,44,24.30
2018,09,06,16,45,24.20
2018,09,06,16,46,24.10
2018,09,06,16,47,24.00
2018,09,06,16,48,24.00
2018,09,06,16,49,24.00
2018,09,06,16,50,24.00
2018,09,06,16,51,24.00
2018,09,06,16,52,24.10
2018,09,06,16,53,24.20
2018,09,06,16,54,24.20
2018,09,06,16,55,24.30
2018,09,06,16,56,24.40
2018,09,06,16,57,24.40
2018,09,06,16,58,24.40
2018,09,06,16,59,24.30
2018,09,06,17,00,24.20
2018,09,06,17,01,24.00
2018,09,06,17,02,23.90
2018,09,06,17,03,23.70
2018,09,06,17,04,23.60
2018,09,06,17,05,23.50
2018,09,06,17,06,23.40
2018,09,06,17,07,23.30
2018,09,06,17,08,23.20
2018,09,06,17,09,23.20
2018,09,06,17,10,23.10
2018,09,06,17,11,23.00
2018,09,06,17,12,23.00
2018,09,06,17,13,22.90
2018,09,06,17,14,22.90
2018,09,06,17,15,22.90
2018,09,06,17,16,22.90
2018,09,06,17,17,23.00
2018,09,06,17,18,23.10
2018,09,06,17,19,23.20